Time,TemperatureF,DewpointF,PressureIn,WindDirection,WindDirectionDegrees,WindSpeedMPH,WindSpeedGustMPH,Humidity,HourlyPrecipIn,Conditions,Clouds,dailyrainin,SolarRadiationWatts/m^2,SoftwareType,DateUTC
2014-01-25 00:14:00,55.5,51.0,30.20,North,-999,0.0,0.0,84,0.00,,,0.00,0,weatherlink.com 1.10,2014-01-25 05:14:00,
2014-01-25 00:29:00,55.2,51.0,30.19,North,-999,0.0,0.0,84,0.00,,,0.00,0,weatherlink.com 1.10,2014-01-25 05:29:00,
2014-01-25 00:44:00,55.0,51.0,30.19,North,-999,0.0,0.0,85,0.00,,,0.00,0,weatherlink.com 1.10,2014-01-25 05:44:00,
2014-01-25 00:59:00,54.7,50.0,30.18,North,-999,0.0,0.0,85,0.00,,,0.00,0,weatherlink.com 1.10,2014-01-25 05:59:00,
2014-01-25 01:14:00,54.3,50.0,30.19,North,-999,0.0,0.0,86,0.00,,,0.00,0,weatherlink.com 1.10,2014-01-25 06:14:00,
2014-01-25 01:29:00,54.1,50.0,30.18,North,-999,0.0,0.0,86,0.00,,,0.00,0,weatherlink.com 1.10,2014-01-25 06:29:00,
2014-01-25 01:44:00,53.8,50.0,30.18,North,-999,0.0,0.0,87,0.00,,,0.00,0,weatherlink.com 1.10,2014-01-25 06:44:00,
2014-01-25 01:59:00,53.6,50.0,30.17,North,-999,0.0,0.0,87,0.00,,,0.00,0,weatherlink.com 1.10,2014-01-25 06:59:00,
2014-01-25 02:14:00,53.7,50.0,30.17,North,-999,0.0,0.0,87,0.00,,,0.00,0,weatherlink.com 1.10,2014-01-25 07:14:00,
2014-01-25 02:29:00,53.3,50.0,30.17,North,-999,0.0,0.0,88,0.00,,,0.00,0,weatherlink.com 1.10,2014-01-25 07:29:00,
2014-01-25 02:44:00,53.1,50.0,30.16,North,-999,0.0,0.0,88,0.00,,,0.00,0,weatherlink.com 1.10,2014-01-25 07:44:00,
2014-01-25 02:59:00,52.7,50.0,30.16,North,-999,0.0,0.0,89,0.00,,,0.00,0,weatherlink.com 1.10,2014-01-25 07:59:00,
2014-01-25 03:14:00,52.6,50.0,30.16,North,-999,0.0,0.0,89,0.00,,,0.00,0,weatherlink.com 1.10,2014-01-25 08:14:00,
2014-01-25 03:29:00,52.3,50.0,30.15,North,-999,0.0,0.0,90,0.00,,,0.00,0,weatherlink.com 1.10,2014-01-25 08:29:00,
2014-01-25 03:44:00,52.4,50.0,30.14,North,-999,0.0,0.0,90,0.00,,,0.00,0,weatherlink.com 1.10,2014-01-25 08:44:00,
2014-01-25 03:59:00,52.3,50.0,30.14,North,-999,0.0,0.0,90,0.00,,,0.00,0,weatherlink.com 1.10,2014-01-25 08:59:00,
2014-01-25 04:14:00,52.2,49.0,30.15,North,-999,0.0,0.0,90,0.00,,,0.00,0,weatherlink.com 1.10,2014-01-25 09:14:00,
2014-01-25 04:29:00,52.1,49.0,30.15,North,-999,0.0,0.0,90,0.00,,,0.00,0,weatherlink.com 1.10,2014-01-25 09:29:00,
2014-01-25 04:44:00,52.0,49.0,30.14,North,-999,0.0,0.0,90,0.00,,,0.00,0,weatherlink.com 1.10,2014-01-25 09:44:00,
2014-01-25 04:59:00,52.1,49.0,30.14,North,-999,0.0,0.0,90,0.00,,,0.00,0,weatherlink.com 1.10,2014-01-25 09:59:00,
2014-01-25 05:14:00,52.4,50.0,30.14,North,-999,0.0,0.0,90,0.00,,,0.00,0,weatherlink.com 1.10,2014-01-25 10:14:00,
2014-01-25 05:29:00,52.5,50.0,30.14,North,-999,0.0,0.0,90,0.00,,,0.00,0,weatherlink.com 1.10,2014-01-25 10:29:00,
2014-01-25 05:44:00,52.6,50.0,30.14,North,-999,0.0,0.0,90,0.00,,,0.00,0,weatherlink.com 1.10,2014-01-25 10:44:00,
2014-01-25 05:59:00,52.4,50.0,30.15,North,-999,0.0,0.0,90,0.00,,,0.00,0,weatherlink.com 1.10,2014-01-25 10:59:00,
2014-01-25 06:14:00,52.5,50.0,30.15,North,-999,0.0,0.0,90,0.00,,,0.00,0,weatherlink.com 1.10,2014-01-25 11:14:00,
2014-01-25 06:29:00,52.7,50.0,30.15,North,-999,0.0,0.0,90,0.00,,,0.00,0,weatherlink.com 1.10,2014-01-25 11:29:00,
2014-01-25 06:44:00,52.9,50.0,30.15,North,-999,0.0,0.0,90,0.00,,,0.00,0,weatherlink.com 1.10,2014-01-25 11:44:00,
2014-01-25 06:59:00,53.0,50.0,30.15,North,-999,0.0,0.0,90,0.00,,,0.00,0,weatherlink.com 1.10,2014-01-25 11:59:00,
2014-01-25 07:14:00,53.3,51.0,30.15,North,-999,0.0,0.0,90,0.00,,,0.00,9,weatherlink.com 1.10,2014-01-25 12:14:00,
2014-01-25 07:29:00,53.5,51.0,30.15,North,-999,0.0,0.0,90,0.00,,,0.00,23,weatherlink.com 1.10,2014-01-25 12:29:00,
2014-01-25 07:44:00,53.8,51.0,30.15,North,-999,0.0,0.0,90,0.00,,,0.00,104,weatherlink.com 1.10,2014-01-25 12:44:00,
2014-01-25 08:00:00,54.3,51.0,30.15,North,-999,0.0,0.0,89,0.00,,,0.00,98,weatherlink.com 1.10,2014-01-25 13:00:00,
2014-01-25 08:15:00,55.1,52.0,30.15,North,-999,0.0,0.0,89,0.00,,,0.00,123,weatherlink.com 1.10,2014-01-25 13:15:00,
2014-01-25 08:30:00,56.2,53.0,30.15,North,-999,0.0,0.0,88,0.00,,,0.00,146,weatherlink.com 1.10,2014-01-25 13:30:00,
2014-01-25 08:45:00,57.2,53.0,30.15,North,-999,0.0,0.0,87,0.00,,,0.00,144,weatherlink.com 1.10,2014-01-25 13:45:00,
2014-01-25 09:00:00,58.2,54.0,30.16,North,-999,0.0,0.0,85,0.00,,,0.00,163,weatherlink.com 1.10,2014-01-25 14:00:00,
2014-01-25 09:15:00,59.2,54.0,30.15,North,-999,0.0,0.0,84,0.00,,,0.00,220,weatherlink.com 1.10,2014-01-25 14:15:00,
2014-01-25 09:30:00,60.7,55.0,30.15,North,-999,0.0,0.0,82,0.00,,,0.00,350,weatherlink.com 1.10,2014-01-25 14:30:00,
2014-01-25 09:45:00,62.2,56.0,30.15,North,-999,0.0,0.0,81,0.00,,,0.00,325,weatherlink.com 1.10,2014-01-25 14:45:00,
2014-01-25 10:00:00,63.4,57.0,30.16,North,-999,0.0,0.0,79,0.00,,,0.00,125,weatherlink.com 1.10,2014-01-25 15:00:00,
2014-01-25 10:15:00,65.4,58.0,30.15,North,-999,0.0,0.0,77,0.00,,,0.00,555,weatherlink.com 1.10,2014-01-25 15:15:00,
2014-01-25 10:30:00,68.4,59.0,30.15,North,-999,0.0,0.0,72,0.00,,,0.00,589,weatherlink.com 1.10,2014-01-25 15:30:00,
2014-01-25 10:45:00,70.6,61.0,30.14,North,-999,0.0,0.0,71,0.00,,,0.00,615,weatherlink.com 1.10,2014-01-25 15:45:00,
2014-01-25 11:00:00,72.4,61.0,30.14,North,-999,0.0,0.0,67,0.00,,,0.00,740,weatherlink.com 1.10,2014-01-25 16:00:00,
2014-01-25 11:15:00,72.4,61.0,30.12,North,-999,0.0,0.0,68,0.00,,,0.00,631,weatherlink.com 1.10,2014-01-25 16:15:00,
2014-01-25 11:30:00,72.7,61.0,30.12,North,-999,0.0,0.0,66,0.00,,,0.00,780,weatherlink.com 1.10,2014-01-25 16:30:00,
2014-01-25 11:45:00,73.1,60.0,30.12,North,-999,0.0,0.0,64,0.00,,,0.00,301,weatherlink.com 1.10,2014-01-25 16:45:00,
2014-01-25 12:00:00,72.4,60.0,30.11,North,-999,0.0,0.0,66,0.00,,,0.00,287,weatherlink.com 1.10,2014-01-25 17:00:00,
2014-01-25 12:15:00,72.6,60.0,30.10,North,-999,0.0,0.0,64,0.00,,,0.00,318,weatherlink.com 1.10,2014-01-25 17:15:00,
2014-01-25 12:30:00,73.9,61.0,30.09,North,-999,0.0,0.0,64,0.00,,,0.00,856,weatherlink.com 1.10,2014-01-25 17:30:00,
2014-01-25 12:46:00,74.0,61.0,30.08,North,-999,0.0,0.0,63,0.00,,,0.00,900,weatherlink.com 1.10,2014-01-25 17:46:00,
2014-01-25 13:01:00,73.2,60.0,30.07,North,-999,0.0,0.0,64,0.00,,,0.00,185,weatherlink.com 1.10,2014-01-25 18:01:00,
2014-01-25 13:16:00,74.2,60.0,30.06,North,-999,0.0,0.0,61,0.00,,,0.00,842,weatherlink.com 1.10,2014-01-25 18:16:00,
2014-01-25 13:31:00,76.1,57.0,30.05,North,-999,0.0,0.0,52,0.00,,,0.00,731,weatherlink.com 1.10,2014-01-25 18:31:00,
2014-01-25 13:46:00,75.3,56.0,30.04,North,-999,0.0,0.0,52,0.00,,,0.00,158,weatherlink.com 1.10,2014-01-25 18:46:00,
2014-01-25 14:01:00,74.7,56.0,30.04,North,-999,0.0,0.0,52,0.00,,,0.00,200,weatherlink.com 1.10,2014-01-25 19:01:00,
2014-01-25 14:16:00,75.5,57.0,30.03,North,-999,0.0,0.0,52,0.00,,,0.00,687,weatherlink.com 1.10,2014-01-25 19:16:00,
2014-01-25 14:31:00,75.7,56.0,30.03,North,-999,0.0,0.0,51,0.00,,,0.00,619,weatherlink.com 1.10,2014-01-25 19:31:00,
2014-01-25 14:46:00,76.0,57.0,30.03,North,-999,0.0,0.0,52,0.00,,,0.00,587,weatherlink.com 1.10,2014-01-25 19:46:00,
2014-01-25 15:01:00,75.0,56.0,30.03,North,-999,0.0,0.0,52,0.00,,,0.00,190,weatherlink.com 1.10,2014-01-25 20:01:00,
2014-01-25 15:16:00,74.9,56.0,30.02,North,-999,0.0,0.0,53,0.00,,,0.00,241,weatherlink.com 1.10,2014-01-25 20:16:00,
2014-01-25 15:31:00,74.8,56.0,30.02,North,-999,0.0,0.0,53,0.00,,,0.00,190,weatherlink.com 1.10,2014-01-25 20:31:00,
2014-01-25 15:46:00,75.1,57.0,30.02,North,-999,0.0,0.0,53,0.00,,,0.00,346,weatherlink.com 1.10,2014-01-25 20:46:00,
2014-01-25 16:01:00,74.5,56.0,30.02,North,-999,0.0,0.0,53,0.00,,,0.00,97,weatherlink.com 1.10,2014-01-25 21:01:00,
2014-01-25 16:16:00,75.7,57.0,30.02,North,-999,0.0,0.0,52,0.00,,,0.00,315,weatherlink.com 1.10,2014-01-25 21:16:00,
2014-01-25 16:31:00,75.6,56.0,30.02,North,-999,0.0,0.0,51,0.00,,,0.00,204,weatherlink.com 1.10,2014-01-25 21:31:00,
2014-01-25 16:46:00,75.3,56.0,30.02,North,-999,0.0,0.0,52,0.00,,,0.00,53,weatherlink.com 1.10,2014-01-25 21:46:00,
2014-01-25 17:01:00,74.8,56.0,30.02,North,-999,0.0,0.0,52,0.00,,,0.00,79,weatherlink.com 1.10,2014-01-25 22:01:00,
2014-01-25 17:16:00,74.3,56.0,30.02,North,-999,0.0,0.0,53,0.00,,,0.00,33,weatherlink.com 1.10,2014-01-25 22:16:00,
2014-01-25 17:31:00,74.2,56.0,30.02,North,-999,0.0,0.0,53,0.00,,,0.00,33,weatherlink.com 1.10,2014-01-25 22:31:00,
2014-01-25 17:46:00,73.6,56.0,30.03,North,-999,0.0,0.0,55,0.00,,,0.00,18,weatherlink.com 1.10,2014-01-25 22:46:00,
2014-01-25 18:01:00,73.0,56.0,30.02,North,-999,0.0,0.0,56,0.00,,,0.00,0,weatherlink.com 1.10,2014-01-25 23:01:00,
2014-01-25 18:16:00,72.4,57.0,30.03,North,-999,0.0,0.0,59,0.00,,,0.00,0,weatherlink.com 1.10,2014-01-25 23:16:00,
2014-01-25 18:31:00,71.8,57.0,30.03,North,-999,0.0,0.0,60,0.00,,,0.00,0,weatherlink.com 1.10,2014-01-25 23:31:00,
2014-01-25 18:46:00,71.3,57.0,30.03,North,-999,0.0,0.0,62,0.00,,,0.00,0,weatherlink.com 1.10,2014-01-25 23:46:00,
2014-01-25 19:01:00,70.1,58.0,30.03,North,-999,0.0,0.0,66,0.00,,,0.00,0,weatherlink.com 1.10,2014-01-26 00:01:00,
2014-01-25 19:16:00,69.5,58.0,30.03,North,-999,0.0,0.0,68,0.00,,,0.00,0,weatherlink.com 1.10,2014-01-26 00:16:00,
2014-01-25 19:31:00,70.2,60.0,30.04,North,-999,0.0,0.0,70,0.00,,,0.00,0,weatherlink.com 1.10,2014-01-26 00:31:00,
2014-01-25 19:46:00,70.8,60.0,30.04,North,-999,0.0,0.0,69,0.00,,,0.00,0,weatherlink.com 1.10,2014-01-26 00:46:00,
2014-01-25 20:01:00,70.8,61.0,30.04,North,-999,0.0,0.0,70,0.00,,,0.00,0,weatherlink.com 1.10,2014-01-26 01:01:00,
2014-01-25 20:16:00,70.3,61.0,30.04,North,-999,0.0,0.0,72,0.00,,,0.00,0,weatherlink.com 1.10,2014-01-26 01:16:00,
2014-01-25 20:31:00,70.1,61.0,30.04,North,-999,0.0,0.0,72,0.00,,,0.00,0,weatherlink.com 1.10,2014-01-26 01:31:00,
2014-01-25 20:46:00,69.8,61.0,30.04,North,-999,0.0,0.0,74,0.00,,,0.00,0,weatherlink.com 1.10,2014-01-26 01:46:00,
2014-01-25 21:01:00,69.3,61.0,30.05,North,-999,0.0,0.0,74,0.00,,,0.00,0,weatherlink.com 1.10,2014-01-26 02:01:00,
2014-01-25 21:16:00,68.8,61.0,30.05,North,-999,0.0,0.0,76,0.00,,,0.00,0,weatherlink.com 1.10,2014-01-26 02:16:00,
2014-01-25 21:31:00,68.3,61.0,30.05,North,-999,0.0,0.0,77,0.00,,,0.00,0,weatherlink.com 1.10,2014-01-26 02:31:00,
2014-01-25 21:46:00,67.9,61.0,30.05,North,-999,0.0,0.0,78,0.00,,,0.00,0,weatherlink.com 1.10,2014-01-26 02:46:00,
2014-01-25 22:01:00,67.4,61.0,30.06,North,-999,0.0,0.0,79,0.00,,,0.00,0,weatherlink.com 1.10,2014-01-26 03:01:00,
2014-01-25 22:16:00,66.8,60.0,30.06,North,-999,0.0,0.0,80,0.00,,,0.00,0,weatherlink.com 1.10,2014-01-26 03:16:00,
2014-01-25 22:31:00,66.4,60.0,30.06,North,-999,0.0,0.0,81,0.00,,,0.00,0,weatherlink.com 1.10,2014-01-26 03:31:00,
2014-01-25 22:46:00,66.0,60.0,30.06,North,-999,0.0,0.0,82,0.00,,,0.00,0,weatherlink.com 1.10,2014-01-26 03:46:00,
2014-01-25 23:01:00,65.5,60.0,30.07,North,-999,0.0,0.0,83,0.00,,,0.00,0,weatherlink.com 1.10,2014-01-26 04:01:00,
2014-01-25 23:16:00,65.0,60.0,30.07,North,-999,0.0,0.0,85,0.00,,,0.00,0,weatherlink.com 1.10,2014-01-26 04:16:00,
2014-01-25 23:32:00,64.4,60.0,30.07,North,-999,0.0,0.0,86,0.00,,,0.00,0,weatherlink.com 1.10,2014-01-26 04:32:00,
2014-01-25 23:47:00,63.9,60.0,30.07,North,-999,0.0,0.0,86,0.00,,,0.00,0,weatherlink.com 1.10,2014-01-26 04:47:00,